Location: Haliburton Scout Reserve
(45.0900°N, 78.3200°W)
Time: 05:01:30
(UTC-05:00)

Transit 2A Rocket - Visible Passes

Search period start: 31 January 2023 00:00
Search period end: 10 February 2023 00:00
Orbit: 585 x 915 km, 66.7° (Epoch: 30 January)

Date Brightness Start Highest point End Pass type
(mag) Time Alt. Az. Time Alt. Az. Time Alt. Az.
31 Jan 7.7 06:09:07 10° N 06:09:58 10° NNE 06:10:47 10° NNE visible
02 Feb 7.5 06:24:03 10° N 06:27:30 16° NNE 06:31:01 10° ENE visible
03 Feb 7.7 05:41:36 10° N 05:43:46 12° NNE 05:45:58 10° NE visible
04 Feb 7.2 06:39:54 10° NNW 06:44:45 25° NE 06:49:43 10° E visible
05 Feb 7.5 05:57:09 10° N 06:01:13 18° NNE 06:05:21 10° ENE visible
06 Feb 7.7 05:14:32 10° N 05:17:33 14° NNE 05:20:35 10° ENE visible
06 Feb 6.4 06:55:58 10° NNW 07:01:43 44° NE 07:07:32 10° ESE visible
07 Feb 7.8 04:32:15 10° N 04:33:46 11° NNE 04:35:16 10° NE visible
07 Feb 7.0 06:13:05 10° NNW 06:18:21 31° NE 06:23:42 10° ESE visible
08 Feb 7.4 05:30:17 10° NNW 05:34:53 22° NE 05:39:32 10° E visible
09 Feb 7.7 04:47:35 10° N 04:51:16 16° NNE 04:55:01 10° ENE visible
09 Feb 6.0 06:29:14 10° NNW 06:35:11 56° NE 06:41:11 10° SE visible
